This is the latest recevied weather packets stored in our database for station/object K6MBY. If no packets are shown the sender has not sent any weather packets the latest 10 day(s).
| Time | Temp. | Humidity | Pressure | Rain* | Wind** | Luminosity | Snow |
|---|---|---|---|---|---|---|---|
| 1777581093 | 14.44° C | 75% | 1023.2 hPa | 0 mm | - | 652 W/m² | - |
| 1777580792 | 15° C | 75% | 1023.3 hPa | 0 mm | - | 745 W/m² | - |
| 1777580488 | 14.44° C | 74% | 1023.3 hPa | 0 mm | - | 822 W/m² | - |
| 1777580184 | 14.44° C | 74% | 1023.4 hPa | 0 mm | - | 716 W/m² | - |
| 1777579881 | 15° C | 76% | 1023.4 hPa | 0 mm | - | 752 W/m² | - |
| 1777579580 | 15° C | 75% | 1023.5 hPa | 0 mm | - | 865 W/m² | - |
| 1777579275 | 14.44° C | 76% | 1023.2 hPa | 0 mm | - | 875 W/m² | - |
| 1777578970 | 15° C | 76% | 1023.6 hPa | 0 mm | - | 848 W/m² | - |
| 1777578666 | 14.44° C | 75% | 1023.6 hPa | 0 mm | - | 870 W/m² | - |
| 1777578364 | 14.44° C | 76% | 1023.6 hPa | 0 mm | - | 853 W/m² | - |
| 1777578061 | 13.89° C | 77% | 1023.5 hPa | 0 mm | - | 739 W/m² | - |
| 1777577756 | 13.89° C | 79% | 1023.8 hPa | 0 mm | - | 703 W/m² | - |
| 1777577453 | 13.89° C | 80% | 1023.6 hPa | 0 mm | - | 659 W/m² | - |
| 1777577150 | 13.89° C | 81% | 1023.7 hPa | 0 mm | - | 620 W/m² | - |
| 1777576846 | 13.89° C | 80% | 1024 hPa | 0 mm | - | 750 W/m² | - |
| 1777576545 | 13.89° C | 81% | 1023.9 hPa | 0 mm | - | 715 W/m² | - |
| 1777576242 | 13.89° C | 80% | 1023.9 hPa | 0 mm | - | 775 W/m² | - |
| 1777575938 | 13.89° C | 78% | 1024.1 hPa | 0 mm | - | 491 W/m² | - |
| 1777575634 | 13.89° C | 79% | 1023.9 hPa | 0 mm | - | 559 W/m² | - |
| 1777575330 | 13.89° C | 79% | 1024 hPa | 0 mm | - | 491 W/m² | - |
| 1777575026 | 13.89° C | 78% | 1024.1 hPa | 0 mm | - | 440 W/m² | - |
| 1777574723 | 13.89° C | 78% | 1024.1 hPa | 0 mm | - | 510 W/m² | - |
| 1777574420 | 14.44° C | 80% | 1024.2 hPa | 0 mm | - | 778 W/m² | - |
| 1777574115 | 14.44° C | 79% | 1024.3 hPa | 0 mm | - | 947 W/m² | - |
| 1777573811 | 14.44° C | 77% | 1024.3 hPa | 0 mm | - | 943 W/m² | - |
* Rain latest hour (hover to see other rain measurements)
** Current wind speed in m/s (hover to see current wind gust speed)